Location: Trondheim
(63.4170°N, 10.4170°E)
Time: 13:10:04
(UTC+02:00)

Iridium 82 - Visible Passes

Search period start: 23 July 2016 00:00
Search period end: 02 August 2016 00:00
Orbit: 776 x 779 km, 86.4° (Epoch: 22 July)

Date Brightness Start Highest point End Pass type
(mag) Time Alt. Az. Time Alt. Az. Time Alt. Az.
23 Jul 8.0 00:55:08 10° N 00:58:31 17° NE 01:01:55 10° E visible
24 Jul 8.1 00:22:01 10° NNE 00:24:24 13° NE 00:26:47 10° ENE visible
24 Jul 6.9 02:01:54 10° N 02:06:47 37° ENE 02:11:37 10° SE visible
25 Jul 7.4 01:28:28 10° N 01:32:55 27° ENE 01:37:20 10° ESE visible
26 Jul 7.8 00:55:05 10° N 00:58:56 20° NE 01:02:47 10° ESE visible
26 Jul 6.0 02:35:30 10° N 02:40:44 65° ENE 02:45:57 10° SSE visible
27 Jul 8.0 00:21:50 10° N 00:24:53 15° NE 00:27:55 10° E visible
27 Jul 6.5 02:01:59 10° N 02:07:03 45° ENE 02:12:03 10° SE visible
28 Jul 7.0 01:28:30 10° N 01:33:14 33° ENE 01:37:56 10° SE visible
29 Jul 7.5 00:55:05 10° N 00:59:20 24° ENE 01:03:33 10° ESE visible
29 Jul 5.7 02:35:38 10° N 02:40:54 81° E 02:46:09 10° S visible
30 Jul 7.8 00:21:45 10° N 00:25:19 18° NE 00:28:53 10° E visible
30 Jul 6.1 02:02:05 10° N 02:07:16 56° ENE 02:12:24 10° SSE visible
30 Jul 8.0 23:48:34 10° NNE 23:51:12 14° NE 23:53:50 10° ENE visible
31 Jul 6.7 01:28:34 10° N 01:33:31 40° ENE 01:38:25 10° SE visible
01 Aug 7.1 00:55:07 10° N 00:59:40 29° ENE 01:04:12 10° ESE visible
01 Aug 5.6 02:35:46 10° N 02:41:02 82° W 02:46:16 10° S visible
